Time,TemperatureF,DewpointF,PressureIn,WindDirection,WindDirectionDegrees,WindSpeedMPH,WindSpeedGustMPH,Humidity,HourlyPrecipIn,Conditions,Clouds,dailyrainin,SoftwareType,DateUTC
2013-09-05 00:22:00,58.0,-99.9,-100.00,North,-999,-999.0,-999.0,-999,0.00,,,0.00,,2013-09-05 06:22:00,
2013-09-05 00:32:00,58.0,-99.9,-100.00,North,-999,-999.0,-999.0,-999,0.00,,,0.00,,2013-09-05 06:32:00,
2013-09-05 00:42:00,58.0,-99.9,-100.00,North,-999,-999.0,-999.0,-999,0.00,,,0.00,,2013-09-05 06:42:00,
2013-09-05 01:23:00,57.0,-99.9,-100.00,North,-999,-999.0,-999.0,-999,-99.99,,,-99.99,,2013-09-05 07:23:00,
2013-09-05 01:32:00,57.0,-99.9,-100.00,North,-999,-999.0,-999.0,-999,-99.99,,,-99.99,,2013-09-05 07:32:00,
2013-09-05 01:42:00,57.0,-99.9,-100.00,North,-999,-999.0,-999.0,-999,-99.99,,,-99.99,,2013-09-05 07:42:00,
2013-09-05 02:12:00,55.0,-99.9,-100.00,North,-999,-999.0,-999.0,-999,0.01,,,-99.99,,2013-09-05 08:12:00,
2013-09-05 02:22:00,55.0,-99.9,-100.00,North,-999,-999.0,-999.0,-999,0.01,,,-99.99,,2013-09-05 08:22:00,
2013-09-05 02:32:00,55.0,-99.9,-100.00,North,-999,-999.0,-999.0,-999,0.01,,,-99.99,,2013-09-05 08:32:00,
2013-09-05 02:42:00,55.0,-99.9,-100.00,North,-999,-999.0,-999.0,-999,0.01,,,-99.99,,2013-09-05 08:42:00,
2013-09-05 03:11:00,54.0,-99.9,-100.00,North,-999,-999.0,-999.0,-999,-99.99,,,-99.99,,2013-09-05 09:11:00,
2013-09-05 03:22:00,54.0,-99.9,-100.00,North,-999,-999.0,-999.0,-999,-99.99,,,-99.99,,2013-09-05 09:22:00,
2013-09-05 03:33:00,54.0,-99.9,-100.00,North,-999,-999.0,-999.0,-999,-99.99,,,-99.99,,2013-09-05 09:33:00,
2013-09-05 03:43:00,54.0,-99.9,-100.00,North,-999,-999.0,-999.0,-999,-99.99,,,-99.99,,2013-09-05 09:43:00,
2013-09-05 06:22:00,55.0,-99.9,-100.00,North,-999,-999.0,-999.0,-999,-99.99,,,-99.99,,2013-09-05 12:22:00,
2013-09-05 06:32:00,55.0,-99.9,-100.00,North,-999,-999.0,-999.0,-999,-99.99,,,-99.99,,2013-09-05 12:32:00,
2013-09-05 06:42:00,55.0,-99.9,-100.00,North,-999,-999.0,-999.0,-999,-99.99,,,-99.99,,2013-09-05 12:42:00,
2013-09-05 09:11:00,61.0,-99.9,-100.00,North,-999,-999.0,-999.0,-999,-99.99,,,-99.99,,2013-09-05 15:11:00,
2013-09-05 09:22:00,61.0,-99.9,-100.00,North,-999,-999.0,-999.0,-999,-99.99,,,-99.99,,2013-09-05 15:22:00,
2013-09-05 09:34:00,61.0,-99.9,-100.00,North,-999,-999.0,-999.0,-999,-99.99,,,-99.99,,2013-09-05 15:34:00,
2013-09-05 09:44:00,61.0,-99.9,-100.00,North,-999,-999.0,-999.0,-999,-99.99,,,-99.99,,2013-09-05 15:44:00,
2013-09-05 10:13:00,59.0,-99.9,-100.00,North,-999,-999.0,-999.0,-999,0.01,,,0.00,,2013-09-05 16:13:00,
2013-09-05 10:24:00,59.0,-99.9,-100.00,North,-999,-999.0,-999.0,-999,0.01,,,0.00,,2013-09-05 16:24:00,
2013-09-05 10:33:00,59.0,-99.9,-100.00,North,-999,-999.0,-999.0,-999,0.01,,,0.00,,2013-09-05 16:33:00,
2013-09-05 10:43:00,59.0,-99.9,-100.00,North,-999,-999.0,-999.0,-999,0.01,,,0.00,,2013-09-05 16:43:00,
2013-09-05 11:23:00,59.0,-99.9,-100.00,North,-999,-999.0,-999.0,-999,0.02,,,0.02,,2013-09-05 17:23:00,
2013-09-05 11:34:00,59.0,-99.9,-100.00,North,-999,-999.0,-999.0,-999,0.02,,,0.02,,2013-09-05 17:34:00,
2013-09-05 11:43:00,59.0,-99.9,-100.00,North,-999,-999.0,-999.0,-999,0.02,,,0.02,,2013-09-05 17:43:00,
2013-09-05 12:22:00,62.0,-99.9,-100.00,North,-999,-999.0,-999.0,-999,0.07,,,0.09,,2013-09-05 18:22:00,
2013-09-05 12:32:00,62.0,-99.9,-100.00,North,-999,-999.0,-999.0,-999,0.07,,,0.09,,2013-09-05 18:32:00,
2013-09-05 12:43:00,62.0,-99.9,-100.00,North,-999,-999.0,-999.0,-999,0.07,,,0.09,,2013-09-05 18:43:00,
2013-09-05 13:11:00,67.0,-99.9,-100.00,North,-999,-999.0,-999.0,-999,0.00,,,0.09,,2013-09-05 19:11:00,
2013-09-05 13:22:00,67.0,-99.9,-100.00,North,-999,-999.0,-999.0,-999,0.00,,,0.09,,2013-09-05 19:22:00,
2013-09-05 13:32:00,67.0,-99.9,-100.00,North,-999,-999.0,-999.0,-999,0.00,,,0.09,,2013-09-05 19:32:00,
2013-09-05 13:42:00,67.0,-99.9,-100.00,North,-999,-999.0,-999.0,-999,0.00,,,0.09,,2013-09-05 19:42:00,
2013-09-05 14:22:00,71.0,-99.9,-100.00,North,-999,-999.0,-999.0,-999,0.00,,,-99.99,,2013-09-05 20:22:00,
2013-09-05 14:32:00,71.0,-99.9,-100.00,North,-999,-999.0,-999.0,-999,0.00,,,-99.99,,2013-09-05 20:32:00,
2013-09-05 14:43:00,71.0,-99.9,-100.00,North,-999,-999.0,-999.0,-999,0.00,,,-99.99,,2013-09-05 20:43:00,
2013-09-05 15:22:00,73.0,-99.9,-100.00,North,-999,-999.0,-999.0,-999,0.00,,,-99.99,,2013-09-05 21:22:00,
2013-09-05 15:34:00,73.0,-99.9,-100.00,North,-999,-999.0,-999.0,-999,0.00,,,-99.99,,2013-09-05 21:34:00,
2013-09-05 15:44:00,73.0,-99.9,-100.00,North,-999,-999.0,-999.0,-999,0.00,,,-99.99,,2013-09-05 21:44:00,
2013-09-05 16:13:00,74.0,-99.9,-100.00,North,-999,-999.0,-999.0,-999,0.01,,,0.10,,2013-09-05 22:13:00,
2013-09-05 16:24:00,74.0,-99.9,-100.00,North,-999,-999.0,-999.0,-999,0.01,,,0.10,,2013-09-05 22:24:00,
2013-09-05 16:34:00,74.0,-99.9,-100.00,North,-999,-999.0,-999.0,-999,0.01,,,0.10,,2013-09-05 22:34:00,
2013-09-05 16:43:00,74.0,-99.9,-100.00,North,-999,-999.0,-999.0,-999,0.01,,,0.10,,2013-09-05 22:43:00,
2013-09-05 17:23:00,73.0,-99.9,-100.00,North,-999,-999.0,-999.0,-999,-99.99,,,0.09,,2013-09-05 23:23:00,
2013-09-05 17:34:00,73.0,-99.9,-100.00,North,-999,-999.0,-999.0,-999,-99.99,,,0.09,,2013-09-05 23:34:00,
2013-09-05 17:42:00,73.0,-99.9,-100.00,North,-999,-999.0,-999.0,-999,-99.99,,,0.09,,2013-09-05 23:42:00,
2013-09-05 19:22:00,72.0,-99.9,-100.00,North,-999,-999.0,-999.0,-999,-99.99,,,0.09,,2013-09-06 01:22:00,
2013-09-05 19:32:00,72.0,-99.9,-100.00,North,-999,-999.0,-999.0,-999,-99.99,,,0.09,,2013-09-06 01:32:00,
2013-09-05 19:42:00,72.0,-99.9,-100.00,North,-999,-999.0,-999.0,-999,-99.99,,,0.09,,2013-09-06 01:42:00,
2013-09-05 20:22:00,69.0,-99.9,-100.00,North,-999,-999.0,-999.0,-999,0.01,,,0.10,,2013-09-06 02:22:00,
2013-09-05 20:33:00,69.0,-99.9,-100.00,North,-999,-999.0,-999.0,-999,0.01,,,0.10,,2013-09-06 02:33:00,
2013-09-05 20:42:00,69.0,-99.9,-100.00,North,-999,-999.0,-999.0,-999,0.01,,,0.10,,2013-09-06 02:42:00,